User: anonymous   Login
Location: Poughquag
(41.6090°N, 73.6820°W)
Time: 07:17:47
(UTC-04:00)
Language:

Tiros 1 - Orbit

View from above orbital plane
View from above orbital plane
View from above satellite
View from above satellite

Ground track
Ground track

The orbit data is extracted from the following two-line orbital elements,

1    29U 60002B   20149.20263567 -.00000129  00000-0  11833-4 0  9999
2    29  48.3809  44.1872 0023699 146.6724 213.5686 14.74356954215670
Epoch (UTC): 28 May 2020 04:51:47
Eccentricity: 0.0023699
inclination: 48.3809°
perigee height: 630 km
apogee height: 664 km
right ascension of ascending node: 44.1872°
argument of perigee: 146.6724°
revolutions per day: 14.74356954
mean anomaly at epoch: 213.5686°
orbit number at epoch: 21567

The dashed part of the orbit path shows where the satellite is in the earth's shadow,  

DLR